Location: Bourg-d�Oueil
(42.8588°N, 0.4991°E)
Time: 17:11:43
(UTC+00:00)

Cosmos 1626 - Pass Details

Date: 16 June 2021
Orbit: 488 x 493 km, 82.5° (Epoch: 03 August)

Event Time Altitude Azimuth Distance (km) Brightness Sun altitude
Exits shadow 21:27:25 30° 155° (SSE) 907 2.8 -15.1°
Maximum altitude 21:28:56 52° 95° (E) 620 2.3 -15.3°
Drops below altitude 10° 21:32:32 10° 18° (NNE) 1,695 5.3 -15.7°
Sets 21:34:41 0° 14° (NNE) 2,583 6.4 -15.9°
